{"data":{"norad_id":64541,"intl_designator":"2025-135P","name":"PULSAR-0","alt_names":[],"object_type":"PAYLOAD","status":"ACTIVE","operator":null,"country":"US","launch_date":"2025-06-23","launch_site_code":"AFWTR","launch_vehicle":null,"mission":null,"orbit_class":"UNKNOWN","rcs_meters":null,"size_class":null,"mass_kg":null,"dimensions":null,"purposes":[],"wikipedia_slug":null,"has_3d_model":false,"image_url":null,"decayed_at":null,"tle_current":{"epoch":"2026-05-25T04:21:42.354144Z","epoch_age_seconds":59310,"freshness":"FRESH","line1":"1 64541U 25135P   26145.18174021  .00002853  00000+0  13527-3 0  9996","line2":"2 64541  97.4671 260.0560 0001527 254.3641 105.7426 15.20103449 51331","mean_motion":15.20103449,"eccentricity":0.0001527,"inclination_deg":97.4671,"raan_deg":260.056,"arg_perigee_deg":254.3641,"mean_anomaly_deg":105.7426,"bstar":0.00013527,"rev_number":5133,"period_min":94.730394891697,"perigee_km":504.47715339744,"apogee_km":506.57942477673,"semimajor_km":6883.6652890871,"source":"CELESTRAK","updated_at":"2026-05-25T13:38:04.583443Z"}}}